Location: Waverly
(39.3325°N, 76.6061°W)
Time: 18:50:06
(UTC+00:00)

Tiangong - Pass Details

Date: 20 December 2025
Orbit: 378 x 392 km, 41.5° (Epoch: 22 January)

Event Time Altitude Azimuth Distance (km) Brightness Sun altitude
Rises 23:33:47 0° 215° (SW) 2,243 2.5 -20.1°
Reaches altitude 10° 23:36:12 10° 197° (SSW) 1,390 1.1 -20.5°
Enters shadow 23:37:31 17° 174° (S) 1,063 0.2 -20.8°
